Regional Weather Roundup
Issued by NWS

Home | Current Version | Previous Version | Graphics & Text | Print | Product List | Glossary On
Versions: 1 2 3 4 5 6 7 8 9 10 11 12 13 14 15 16 17 18 19 20 21 22 23 24 25 26 27 28 29 30 31 32 33 34 35 36 37 38 39 40 41 42 43 44 45 46 47 48 49 50
000
ASUS43 KOAX 290610
RWRNE

WEATHER ROUNDUP FOR NEBRASKA
NATIONAL WEATHER SERVICE OMAHA NE
100 AM CDT THU SEP 29 2016

NOTES: SATELLITE DATA IS BEING USED TO AUGMENT CLOUD COVER ABOVE
       12000 FEET.
       "FAIR" INDICATES FEW OR NO CLOUDS BELOW 12,000 FEET WITH NO
       SIGNIFICANT WEATHER AND/OR OBSTRUCTIONS TO VISIBILITY.

  * THESE STATIONS DO NOT REPORT WEATHER SUCH AS RAIN...SNOW OR FOG.

NEZ001>004-019>022-054>056-290700-
NEBRASKA PANHANDLE

CITY           SKY/WX    TMP DP  RH WIND       PRES   REMARKS
SCOTTSBLUFF    CLEAR     54  43  66 E10       30.35R
6HR MIN TEMP:  54; 6HR MAX TEMP:  77;

ALLIANCE       CLEAR     47  40  76 SE5       30.36S
6HR MIN TEMP:  47; 6HR MAX TEMP:  76;

CHADRON        CLEAR     59  39  47 CALM      30.33S
6HR MIN TEMP:  57; 6HR MAX TEMP:  78;

KIMBALL        CLEAR     52  40  63 N8        30.39S
SIDNEY         CLEAR     52  38  58 SE9       30.38F
6HR MIN TEMP:  52; 6HR MAX TEMP:  75;

$$

NEZ057>060-069>072-079>082-290700-
SOUTHWEST NEBRASKA

CITY           SKY/WX    TMP DP  RH WIND       PRES   REMARKS
NORTH PLATTE   CLEAR     43  37  79 E5        30.38R
6HR MIN TEMP:  42; 6HR MAX TEMP:  71;

IMPERIAL       CLEAR     49  35  58 SE3       30.37R
6HR MIN TEMP:  49; 6HR MAX TEMP:  75;

LEXINGTON      CLEAR     47  41  78 NE5       30.37S
MCCOOK         CLEAR     47  36  65 NE3       30.36R
6HR MIN TEMP:  47; 6HR MAX TEMP:  73;

OGALLALA       CLEAR     51  37  60 E6        30.37F
$$

NEZ005>010-023>029-035>040-094-290700-
NORTH CENTRAL NEBRASKA

CITY           SKY/WX    TMP DP  RH WIND       PRES   REMARKS
VALENTINE      CLOUDY    47  40  76 E3        30.38S
6HR MIN TEMP:  47; 6HR MAX TEMP:  66;

AINSWORTH      CLOUDY    43  41  92 S3        30.38S
BROKEN BOW     CLOUDY    42  38  85 CALM      30.38R
6HR MIN TEMP:  41; 6HR MAX TEMP:  67;

O`NEILL        CLOUDY    48  43  82 SE6       30.39S
ORD            CLOUDY    42  37  82 CALM      30.37R
6HR MIN TEMP:  40; 6HR MAX TEMP:  64; 6HR PCP: TRACE;

THEDFORD       CLOUDY    45  41  86 CALM      30.39S
$$

NEZ041-046>049-061>064-073>077-083>087-290700-
SOUTH CENTRAL NEBRASKA

CITY           SKY/WX    TMP DP  RH WIND       PRES   REMARKS
GRAND ISLAND   CLEAR     46  42  86 CALM      30.37S
6HR MIN TEMP:  43; 6HR MAX TEMP:  63;

AURORA         CLEAR     46  43  92 NE5       30.37S
HASTINGS       CLEAR     48  41  76 E3        30.37R
6HR MIN TEMP:  48; 6HR MAX TEMP:  64;

HEBRON         CLEAR     48  43  85 CALM      30.35S
HOLDREGE       CLEAR     45  40  82 CALM      30.37R
KEARNEY *      CLOUDY    46  37  71 NE3       30.37R
YORK           CLEAR     45  41  87 NE3       30.37R
$$

NEZ011>018-030>034-042>045-290700-
NORTHEAST NEBRASKA

CITY           SKY/WX    TMP DP  RH WIND       PRES   REMARKS
NORFOLK        CLOUDY    43  41  93 W5        30.37S
6HR MIN TEMP:  41; 6HR MAX TEMP:  62;

ALBION         CLOUDY    42  39  92 N3        30.38S
BLAIR          CLEAR     51  47  85 N6        30.35R
FREMONT        CLEAR     46  45  96 NW3       30.36S
TEKAMAH        CLEAR     46  44  93 N7        30.36R
6HR MIN TEMP:  45; 6HR MAX TEMP:  60;

WAYNE          CLEAR     41  40  96 CALM      30.38S
$$

NEZ050>053-065>068-078-088>093-290700-
SOUTHEAST NEBRASKA

CITY           SKY/WX    TMP DP  RH WIND       PRES   REMARKS
LINCOLN        CLEAR     50  45  83 N6        30.37R
6HR MIN TEMP:  47; 6HR MAX TEMP:  63;

OMAHA EPPLEY   CLEAR     47  43  86 N6        30.35R
6HR MIN TEMP:  47; 6HR MAX TEMP:  61;

BEATRICE       CLEAR     48  46  91 NE6       30.35R
FALLS CITY     CLEAR     52  47  83 NW6       30.31S
6HR MIN TEMP:  52; 6HR MAX TEMP:  62;

NEBRASKA CITY  CLEAR     50  45  81 N5        30.33S
PLATTSMOUTH    CLEAR     50  45  81 CALM      30.33F
$$

NEZ044-045-051>053-067-290700-
OMAHA AREA

CITY           SKY/WX    TMP DP  RH WIND       PRES   REMARKS
OMAHA EPPLEY   CLEAR     47  43  86 N6        30.35R
6HR MIN TEMP:  47; 6HR MAX TEMP:  61;

BLAIR          CLEAR     51  47  85 N6        30.35R
FREMONT        CLEAR     46  45  96 NW3       30.36S
MILLARD        CLEAR     52  47  83 NW3       30.35S
OFFUTT AFB     CLEAR     52  47  84 NE5       30.33S
PLATTSMOUTH    CLEAR     50  45  81 CALM      30.33F
WAHOO          FAIR      48  45  88 N7        30.36S
$$




USA.gov is the U.S. government's official web portal to all federal, state and local government web resources and services.